When you browse on this site, cookies collect data to enhance your experience and personalize the content and advertising you see.
Visit our Privacy Policy to learn more. By continuing to use the site, you agree to this use of cookies and data.
  • In Czech Republic
  • List of Countries
  • For 7 days
  • Water Temperature
  • Satellite Maps
  • Weather Map
  • Weather Widgets
  • user-avatar
    Login

    Hourly Weather West Babylon

    Today, 21 April, Sunday

    Time Temperature Precipitation Wind Pressure Humidity
    00:00 +14°C° 0 mm 4 mps 759 mmHg 74%
    01:00 +14°C° 0 mm 3 mps 759 mmHg 74%
    02:00 +14°C° 0 mm 3 mps 759 mmHg 75%
    03:00 +15°C° 0 mm 2 mps 759 mmHg 76%
    04:00 +15°C° 0 mm 2 mps 759 mmHg 77%
    05:00 +14°C° 0.1 mm 3 mps 759 mmHg 78%
    06:00 +14°C° 0.1 mm 3 mps 760 mmHg 79%
    07:00 +14°C° 0.1 mm 4 mps 760 mmHg 80%
    08:00 +14°C° 0 mm 3 mps 760 mmHg 76%
    09:00 +16°C° 0 mm 3 mps 761 mmHg 71%
    10:00 +17°C° 0 mm 3 mps 761 mmHg 66%
    11:00 +18°C° 0 mm 3 mps 761 mmHg 60%
    12:00 +18°C° 0 mm 4 mps 761 mmHg 55%
    13:00 +19°C° 0 mm 4 mps 761 mmHg 50%
    14:00 +18°C° 0 mm 4 mps 761 mmHg 49%
    15:00 +18°C° 0 mm 4 mps 761 mmHg 49%
    16:00 +17°C° 0 mm 4 mps 761 mmHg 49%
    17:00 +15°C° 0 mm 4 mps 761 mmHg 51%
    18:00 +15°C° 0 mm 4 mps 761 mmHg 54%
    19:00 +14°C° 0 mm 3 mps 762 mmHg 56%
    20:00 +14°C° 0 mm 3 mps 762 mmHg 58%
    21:00 +14°C° 0 mm 2 mps 762 mmHg 60%
    22:00 +14°C° 0 mm 2 mps 762 mmHg 63%
    23:00 +14°C° 0 mm 1 mps 762 mmHg 64%

    Tomorrow, 22 April, Monday

    Time Temperature Precipitation Wind Pressure Humidity
    00:00 +14°C° 0 mm 1 mps 762 mmHg 66%
    01:00 +13°C° 0 mm 1 mps 762 mmHg 67%
    02:00 +13°C° 0 mm 1 mps 762 mmHg 68%
    03:00 +13°C° 0 mm 1 mps 762 mmHg 68%
    04:00 +13°C° 0 mm 1 mps 762 mmHg 69%
    05:00 +13°C° 0 mm 1 mps 762 mmHg 67%
    06:00 +13°C° 0 mm 1 mps 762 mmHg 66%
    07:00 +14°C° 0 mm 1 mps 763 mmHg 64%
    08:00 +15°C° 0 mm 1 mps 762 mmHg 60%
    09:00 +16°C° 0 mm 1 mps 762 mmHg 56%
    10:00 +18°C° 0 mm 1 mps 762 mmHg 52%
    11:00 +19°C° 0 mm 1 mps 762 mmHg 47%
    12:00 +21°C° 0 mm 1 mps 762 mmHg 43%
    13:00 +21°C° 0 mm 0 mps 761 mmHg 39%
    14:00 +21°C° 0.3 mm 1 mps 761 mmHg 45%
    15:00 +19°C° 0.3 mm 2 mps 761 mmHg 52%
    16:00 +17°C° 0.3 mm 3 mps 760 mmHg 58%
    17:00 +17°C° 0.6 mm 3 mps 760 mmHg 60%
    18:00 +16°C° 0.6 mm 3 mps 761 mmHg 62%
    19:00 +16°C° 0.6 mm 3 mps 761 mmHg 64%
    20:00 +16°C° 0.4 mm 3 mps 761 mmHg 65%
    21:00 +16°C° 0.4 mm 3 mps 761 mmHg 66%
    22:00 +16°C° 0.4 mm 3 mps 761 mmHg 67%
    23:00 +16°C° 0 mm 3 mps 761 mmHg 71%

    Day after tomorrow, 23 April, Tuesday

    Time Temperature Precipitation Wind Pressure Humidity
    00:00 +14°C° 0 mm 3 mps 761 mmHg 75%
    01:00 +14°C° 0 mm 3 mps 761 mmHg 79%
    02:00 +14°C° 0 mm 3 mps 761 mmHg 81%
    03:00 +14°C° 0 mm 3 mps 761 mmHg 84%
    04:00 +14°C° 0 mm 2 mps 761 mmHg 86%
    05:00 +15°C° 0 mm 2 mps 761 mmHg 83%
    06:00 +15°C° 0 mm 2 mps 762 mmHg 81%
    07:00 +15°C° 0 mm 1 mps 762 mmHg 78%
    08:00 +18°C° 0 mm 1 mps 762 mmHg 71%
    09:00 +20°C° 0 mm 1 mps 762 mmHg 63%
    10:00 +21°C° 0 mm 1 mps 762 mmHg 55%
    11:00 +21°C° 0 mm 2 mps 762 mmHg 51%
    12:00 +22°C° 0 mm 3 mps 761 mmHg 48%
    13:00 +23°C° 0 mm 4 mps 761 mmHg 44%
    14:00 +22°C° 0 mm 4 mps 760 mmHg 46%
    15:00 +22°C° 0 mm 5 mps 760 mmHg 48%
    16:00 +21°C° 0 mm 5 mps 759 mmHg 50%
    17:00 +20°C° 0 mm 5 mps 759 mmHg 57%
    18:00 +17°C° 0 mm 6 mps 759 mmHg 63%
    19:00 +16°C° 0 mm 6 mps 759 mmHg 69%
    20:00 +16°C° 0 mm 6 mps 758 mmHg 69%
    21:00 +16°C° 0 mm 6 mps 758 mmHg 69%
    22:00 +16°C° 0 mm 7 mps 758 mmHg 69%
    23:00 +16°C° 0 mm 7 mps 757 mmHg 69%

    24 April, Wednesday

    Time Temperature Precipitation Wind Pressure Humidity
    00:00 +16°C° 0 mm 7 mps 757 mmHg 68%
    01:00 +16°C° 0 mm 7 mps 756 mmHg 68%
    02:00 +17°C° 0.1 mm 7 mps 755 mmHg 66%
    03:00 +17°C° 0.1 mm 6 mps 755 mmHg 64%
    04:00 +17°C° 0.1 mm 6 mps 754 mmHg 62%
    05:00 +19°C° 0.3 mm 6 mps 754 mmHg 64%
    06:00 +19°C° 0.3 mm 6 mps 755 mmHg 66%
    07:00 +20°C° 0.3 mm 6 mps 755 mmHg 68%
    08:00 +19°C° 0 mm 6 mps 755 mmHg 61%
    09:00 +19°C° 0 mm 6 mps 756 mmHg 54%
    10:00 +19°C° 0 mm 6 mps 756 mmHg 46%
    11:00 +19°C° 0 mm 6 mps 756 mmHg 42%
    12:00 +20°C° 0 mm 6 mps 756 mmHg 38%
    13:00 +20°C° 0 mm 5 mps 756 mmHg 34%
    14:00 +21°C° 0 mm 6 mps 756 mmHg 32%
    15:00 +21°C° 0 mm 6 mps 756 mmHg 29%
    16:00 +22°C° 0 mm 6 mps 756 mmHg 27%
    17:00 +21°C° 0 mm 6 mps 757 mmHg 31%
    18:00 +19°C° 0 mm 6 mps 757 mmHg 35%
    19:00 +17°C° 0 mm 6 mps 758 mmHg 39%
    20:00 +16°C° 0 mm 6 mps 758 mmHg 42%
    21:00 +15°C° 0 mm 6 mps 759 mmHg 45%
    22:00 +14°C° 0 mm 5 mps 759 mmHg 47%
    23:00 +13°C° 0 mm 5 mps 759 mmHg 48%

    25 April, Thursday

    Time Temperature Precipitation Wind Pressure Humidity
    00:00 +13°C° 0 mm 5 mps 759 mmHg 50%
    01:00 +12°C° 0 mm 4 mps 759 mmHg 51%
    02:00 +11°C° 0 mm 4 mps 760 mmHg 52%
    03:00 +11°C° 0 mm 4 mps 760 mmHg 53%
    04:00 +11°C° 0 mm 4 mps 760 mmHg 54%
    05:00 +10°C° 0 mm 4 mps 761 mmHg 52%
    06:00 +10°C° 0 mm 4 mps 761 mmHg 51%
    07:00 +10°C° 0 mm 3 mps 761 mmHg 50%
    08:00 +12°C° 0 mm 3 mps 761 mmHg 45%
    09:00 +13°C° 0 mm 3 mps 762 mmHg 40%
    10:00 +14°C° 0 mm 3 mps 762 mmHg 35%
    11:00 +16°C° 0 mm 2 mps 761 mmHg 32%
    12:00 +18°C° 0 mm 2 mps 761 mmHg 28%
    13:00 +21°C° 0 mm 1 mps 761 mmHg 25%
    14:00 +19°C° 0 mm 2 mps 761 mmHg 26%
    15:00 +19°C° 0 mm 2 mps 761 mmHg 27%
    16:00 +19°C° 0 mm 3 mps 761 mmHg 28%
    17:00 +17°C° 0 mm 3 mps 761 mmHg 34%
    18:00 +15°C° 0 mm 4 mps 761 mmHg 39%
    19:00 +14°C° 0 mm 5 mps 761 mmHg 45%
    20:00 +13°C° 0 mm 4 mps 761 mmHg 49%
    21:00 +13°C° 0 mm 4 mps 762 mmHg 53%
    22:00 +12°C° 0 mm 3 mps 762 mmHg 57%
    23:00 +12°C° 0 mm 3 mps 762 mmHg 59%

    26 April, Friday

    Time Temperature Precipitation Wind Pressure Humidity
    00:00 +12°C° 0 mm 3 mps 762 mmHg 62%
    01:00 +12°C° 0 mm 3 mps 762 mmHg 64%
    02:00 +12°C° 0 mm 3 mps 761 mmHg 65%
    03:00 +11°C° 0 mm 3 mps 761 mmHg 66%
    04:00 +11°C° 0 mm 3 mps 761 mmHg 67%
    05:00 +11°C° 0 mm 4 mps 761 mmHg 67%
    06:00 +11°C° 0 mm 4 mps 761 mmHg 67%
    07:00 +12°C° 0 mm 4 mps 761 mmHg 67%
    08:00 +12°C° 0.9 mm 4 mps 761 mmHg 70%
    09:00 +11°C° 0.9 mm 4 mps 760 mmHg 74%
    10:00 +11°C° 0.9 mm 4 mps 760 mmHg 78%
    11:00 +10°C° 2.2 mm 5 mps 760 mmHg 81%
    12:00 +10°C° 2.2 mm 5 mps 759 mmHg 83%
    13:00 +10°C° 2.2 mm 6 mps 758 mmHg 86%
    14:00 +10°C° 3.1 mm 6 mps 758 mmHg 87%
    15:00 +10°C° 3.1 mm 6 mps 758 mmHg 88%
    16:00 +10°C° 3.1 mm 6 mps 757 mmHg 89%
    17:00 +10°C° 0.6 mm 6 mps 757 mmHg 88%
    18:00 +9°C° 0.6 mm 6 mps 758 mmHg 87%
    19:00 +9°C° 0.6 mm 6 mps 758 mmHg 86%
    20:00 +9°C° 0.1 mm 6 mps 758 mmHg 84%
    21:00 +8°C° 0.1 mm 6 mps 759 mmHg 83%
    22:00 +8°C° 0.1 mm 6 mps 759 mmHg 82%
    23:00 +8°C° 0 mm 5 mps 760 mmHg 81%
    Show more